sat.trackr.live / text

‹ back to catalog

STARLINK-6309

NORAD 56535 · 2023-065AJ

PAYLOAD ACTIVE UNKNOWN

§ Identity

Operator
Country
US
Launch date
2023-05-14
Launch site
AFETR
Launch vehicle
Mass (kg)
RCS (m²)

Purposes: comms

External: N2YO · Heavens-Above · Gunter

§ Orbital elements

Epoch: 2026-09-20T04:43:32.548800Z

Period
94.27 min
Inclination
43.0017°
Eccentricity
0.0001117
Mean motion
15.27577053 rev/d
Perigee alt
482.3 km
Apogee alt
483.8 km
Semi-major
6,861.2 km
B*
1.9124e-5
RAAN
208.1702°
Arg perigee
273.0511°
Mean anomaly
87.0213°
Rev number
18,618

§ Raw data

STARLINK-63091 56535U 23065AJ  26263.19690450  .00000264  00000+0  19124-4 0  99952 56535  43.0017 208.1702 0001117 273.0511  87.0213 15.27577053186187

JSON: /api/v1/satellites/56535 · /tle

For live sub-satellite position, see the globe view (requires WebGL).

§ Visibility from observer

Set your observer location to see the next 7 days of passes ≥ 10°. The values pass through the URL so the page stays shareable.

No JS? Fill the form by hand. The geolocation button needs JavaScript.